GEFSGL_con_probscp_174.txt.gz
Probability
23 26 27 23 17 13 11 10 9 10 8 5 4 4 3 3 3 2 1 0 0 0 0 0 0 0 0 0 0 0 0 0 0 0 0 0 0 0 0 0 0 0 0
20 23 25 24 19 14 11 9 9 9 8 5 4 4 3 3 3 3 1 0 0 0 0 0 0 0 0 0 0 0 0 0 0 0 0 0 0 0 0 0 0 0 0
17 18 20 22 21 17 13 10 8 7 6 5 4 4 3 3 3 3 2 1 0 0 0 0 0 0 0 0 0 0 0 0 0 0 0 0 0 0 0 0 0 0 0
16 15 15 17 19 19 16 12 8 6 5 5 5 4 3 3 3 3 3 2 0 0 0 0 0 0 0 0 0 0 0 0 0 0 0 0 0 0 0 0 0 0 0
16 14 13 13 16 17 16 12 9 7 5 4 4 4 3 3 3 3 3 1 0 0 0 0 0 0 0 0 0 0 0 0 0 0 0 0 0 0 0 0 0 0 0
14 13 11 11 12 13 12 9 7 6 5 4 4 3 3 3 3 2 2 1 0 0 0 0 0 0 0 0 0 0 0 0 0 0 0 0 0 0 0 0 0 0 0
10 9 8 8 9 9 7 5 4 4 4 4 3 2 2 2 1 1 1 0 0 0 0 0 0 0 0 0 0 0 0 0 0 0 0 0 0 0 0 0 0 0 0
5 5 5 6 7 7 5 4 3 4 4 3 2 1 0 0 0 0 0 0 0 0 0 0 0 0 0 0 0 0 0 0 0 0 0 0 0 0 0 0 0 0 0
2 2 4 5 6 6 5 5 5 5 4 2 1 0 0 0 0 0 0 0 0 0 0 0 0 0 0 0 0 0 0 0 0 0 0 0 0 0 0 0 0 0 0
1 2 4 5 6 6 5 6 7 7 4 1 0 0 0 0 0 0 0 0 0 0 0 0 0 0 0 0 0 0 0 0 0 0 0 0 0 0 0 0 0 0 0
2 2 3 4 5 5 5 7 8 7 4 1 0 0 0 0 0 0 0 0 0 0 0 0 0 0 0 0 0 0 0 0 0 0 0 0 0 0 0 0 0 0 0
1 1 1 3 3 3 4 5 5 4 3 2 1 1 1 0 0 0 0 0 0 0 0 0 0 0 0 0 0 0 0 0 0 0 0 0 0 0 0 0 0 0 0
1 1 1 2 1 1 2 3 2 2 2 2 2 2 1 0 0 0 0 0 0 0 0 0 0 0 0 0 0 0 0 0 0 0 0 0 0 0 0 0 0 0 0
2 2 3 2 1 1 1 2 1 1 1 1 1 1 1 1 1 0 0 0 0 0 0 0 0 0 0 0 0 0 0 0 0 0 0 0 0 0 0 0 0 0 0
4 4 4 3 3 2 2 2 2 1 0 0 0 1 2 2 1 0 0 0 0 0 0 0 0 0 0 0 0 0 0 0 0 0 0 0 0 0 0 0 0 0 0
6 5 5 4 3 2 2 2 2 1 0 0 0 1 1 1 1 0 0 0 0 0 0 0 0 0 0 0 0 0 0 0 0 0 0 0 0 0 0 0 0 0 0
6 6 5 3 2 1 1 1 1 1 0 0 0 0 0 0 0 0 0 0 0 0 0 0 0 0 0 0 0 0 0 0 0 0 0 0 0 0 0 0 0 0 0
5 4 3 2 1 0 0 0 1 1 0 0 0 0 0 0 0 0 0 0 0 0 0 0 0 0 0 0 0 0 0 0 0 0 0 0 0 0 0 0 0 0 0
2 2 1 1 1 0 0 0 1 1 0 0 0 0 0 0 0 0 0 0 0 0 0 0 0 0 0 0 0 0 0 0 0 0 0 0 0 0 0 0 0 0 0
1 1 0 0 0 0 0 0 0 0 0 0 0 0 0 0 0 0 0 0 0 0 0 0 0 0 0 0 0 0 0 0 0 0 0 0 0 0 0 0 0 0 0
0 0 0 0 0 0 0 0 0 0 0 0 0 0 0 0 0 0 0 0 0 0 0 0 0 0 0 0 0 0 0 0 0 0 0 0 0 0 0 0 0 0 0
0 0 0 0 0 0 0 0 0 1 1 1 1 1 1 0 0 0 0 0 0 0 0 0 0 0 0 0 0 0 0 0 0 0 0 0 0 0 0 0 0 0 0
0 0 0 0 0 0 0 0 1 2 2 2 2 2 2 1 0 0 0 0 0 0 0 0 0 0 0 0 0 0 0 0 0 0 0 0 0 0 0 0 0 0 0
0 0 0 0 0 0 0 0 1 2 3 3 3 3 3 2 1 1 0 0 0 0 0 0 0 0 0 0 0 0 0 0 0 0 0 0 0 0 0 0 0 0 0
0 0 0 0 0 0 0 0 1 3 3 3 3 3 3 3 3 2 1 0 0 0 0 0 0 0 0 0 0 0 0 0 0 0 0 0 0 0 0 0 0 0 0
0 0 0 0 0 0 0 1 2 3 3 3 3 3 3 3 3 2 1 0 0 0 0 0 0 0 0 0 0 0 0 0 0 0 0 0 0 0 0 0 0 0 0

GEFSGL_con_probscp_180.txt.gz
Probability
24 26 27 26 26 27 28 25 20 17 16 16 17 18 18 19 21 23 21 18 16 14 14 13 11 11 12 8 4 2 1 1 0 0 0 0 0 0 0 1 0 0 0
24 25 27 28 28 30 30 25 21 18 17 17 17 17 17 18 21 22 22 20 18 16 16 15 13 12 12 9 6 3 2 1 1 0 0 0 0 0 0 1 1 1 1
25 25 27 30 31 30 30 29 25 22 20 19 18 17 16 18 20 21 22 21 18 16 16 16 15 14 12 10 7 5 3 2 2 1 1 0 1 1 2 1 2 3 3
26 26 27 30 30 29 29 30 29 26 24 24 23 20 19 20 21 21 22 20 17 15 16 16 16 14 11 9 7 6 4 3 3 3 2 1 2 4 4 3 3 4 5
27 26 28 29 29 28 28 29 30 28 25 25 25 22 20 20 19 19 19 19 18 17 16 15 15 13 9 7 5 5 5 4 4 4 3 2 3 6 7 6 5 5 5
27 26 27 28 27 27 28 28 29 27 25 24 22 20 18 16 12 10 13 17 18 18 17 16 14 11 7 5 3 2 2 3 5 4 3 3 4 6 7 6 5 4 3
25 24 25 25 24 25 27 27 27 27 26 23 20 18 17 12 6 3 5 12 16 18 18 18 14 11 9 8 5 2 2 2 3 3 2 2 3 4 4 3 3 2 2
21 21 22 22 22 23 25 25 25 25 25 24 22 20 17 11 4 1 2 7 14 18 19 18 16 13 11 9 8 7 7 4 2 1 1 1 1 1 1 1 1 1 1
18 19 20 20 20 21 23 24 25 24 24 24 25 23 20 13 5 0 1 5 12 17 19 18 16 13 8 6 8 11 11 6 2 0 0 0 0 0 0 0 0 0 1
16 18 19 19 18 20 23 25 27 27 24 24 25 25 23 16 6 1 1 5 11 16 19 18 13 8 4 3 6 10 10 6 3 1 0 0 0 0 0 0 0 0 0
16 17 17 17 17 19 24 27 29 29 26 24 25 25 22 15 6 1 1 3 8 13 16 16 11 4 1 1 3 6 6 4 2 1 0 0 0 0 0 1 1 1 1
17 18 18 17 16 19 25 31 31 31 28 24 22 22 20 14 6 2 0 1 4 9 11 11 8 2 0 0 1 3 2 1 1 0 0 0 0 1 2 2 3 2 2
18 19 19 19 19 21 26 30 31 31 28 23 18 17 18 17 12 5 2 1 1 4 7 6 3 1 0 0 0 0 0 0 0 0 0 0 1 2 3 3 3 2 2
17 18 20 21 21 22 23 24 24 25 24 21 18 17 19 19 15 8 4 2 1 2 4 4 3 2 1 1 0 0 0 0 0 0 0 0 0 1 1 1 1 1 1
20 21 23 24 24 22 19 15 14 15 15 15 14 15 17 16 10 5 3 2 2 1 3 6 7 6 3 1 0 0 1 0 0 0 0 0 0 0 0 0 0 0 0
27 26 26 25 23 20 15 9 6 5 5 5 5 7 9 7 3 1 1 1 1 1 2 5 8 7 4 2 0 0 0 0 0 0 0 0 0 0 0 0 0 0 0
25 24 23 20 18 15 11 6 3 1 0 0 0 1 1 1 0 0 0 0 0 0 1 3 5 5 4 2 1 0 0 0 0 0 0 0 0 0 0 0 0 0 0
16 15 14 13 11 9 7 5 3 2 2 2 1 0 0 0 0 0 0 0 0 0 0 1 2 3 3 3 2 1 1 1 1 1 1 1 0 0 0 0 0 0 0
7 7 8 8 7 5 4 4 4 4 4 4 2 1 0 0 0 0 0 0 0 0 0 0 1 3 4 4 5 4 4 3 3 3 2 2 1 0 0 0 0 0 0
3 3 4 5 4 4 4 5 6 6 6 4 3 1 0 0 0 0 0 0 0 0 0 0 1 3 4 5 5 5 5 5 5 4 3 2 1 0 0 0 0 0 0
3 3 3 4 5 5 5 6 7 6 5 3 2 1 0 0 0 0 0 0 0 0 1 1 1 3 4 4 4 4 4 5 5 5 3 1 0 0 0 0 0 0 0
5 4 5 5 6 5 5 6 7 6 3 1 1 0 0 0 0 0 0 0 0 1 2 2 3 3 3 3 3 3 3 3 3 3 2 1 0 0 0 0 0 0 0
5 5 5 6 5 4 3 4 5 4 2 0 0 0 0 0 0 0 0 1 1 2 3 3 3 3 3 3 2 1 1 1 1 1 1 0 0 0 0 0 0 0 0
4 4 4 3 3 2 1 1 2 1 0 0 0 0 1 1 1 1 1 2 3 4 4 4 4 3 2 2 1 0 0 0 0 0 0 0 0 0 0 0 0 0 0
2 2 2 1 1 1 0 0 0 0 0 0 0 0 1 2 2 2 3 3 3 4 4 4 3 2 1 1 0 0 0 0 0 0 0 0 0 0 0 0 0 0 0
1 1 1 0 0 0 0 0 0 0 0 0 0 0 1 2 2 3 3 3 2 2 2 2 2 1 0 0 0 0 0 0 0 0 0 0 0 0 0 0 0 0 0

GEFSGL_con_probscp_186.txt.gz
Probability
56 53 47 40 40 45 47 47 47 45 44 46 47 44 39 35 35 36 33 30 27 24 22 21 21 19 16 15 17 16 13 10 6 4 4 7 11 10 8 5 3 2 1
49 49 45 40 41 45 48 50 50 47 47 48 47 42 37 33 33 33 32 29 25 22 22 22 21 20 17 14 15 14 12 10 8 6 5 8 11 11 10 8 4 1 1
43 43 41 40 42 44 46 48 48 48 48 47 44 39 34 30 31 31 30 28 24 22 23 24 23 21 18 15 13 13 12 11 11 9 6 6 9 10 10 8 4 2 1
42 40 40 41 43 42 41 42 43 44 45 44 41 37 32 30 30 31 30 29 25 23 22 24 25 22 20 17 14 14 13 12 11 10 6 5 5 7 7 4 2 2 1
44 42 41 43 42 39 37 37 38 39 41 42 41 37 33 31 29 28 29 30 28 24 23 24 24 21 17 14 12 13 13 12 11 10 7 4 3 5 5 2 0 1 1
47 43 42 43 42 38 36 35 35 35 36 39 41 38 34 30 25 19 21 28 30 28 27 25 22 18 15 11 8 8 10 10 10 10 8 4 4 6 6 3 1 1 0
46 43 41 41 41 39 35 33 32 32 33 35 37 37 34 27 18 10 10 20 28 30 28 25 19 17 15 13 9 7 6 5 6 8 8 6 5 7 8 6 4 2 1
41 41 40 38 37 35 32 30 30 30 31 32 33 34 31 25 15 5 4 13 25 28 26 22 18 15 15 14 13 11 8 5 3 4 6 6 5 5 7 7 5 3 2
38 38 38 35 33 32 30 30 30 31 32 31 31 32 30 24 14 5 4 13 24 28 26 21 17 15 12 10 12 15 13 9 5 3 3 3 3 2 3 4 4 3 1
39 38 36 32 31 30 29 29 31 34 35 33 31 31 29 23 13 5 5 14 23 26 26 21 15 12 9 6 8 13 14 11 8 4 2 1 1 0 0 1 1 1 0
40 37 33 30 29 29 30 30 32 34 34 33 32 30 26 20 12 5 4 10 17 20 20 17 11 6 3 2 4 9 10 9 7 5 4 2 1 1 1 1 0 0 0
36 33 29 27 26 27 30 32 33 34 33 32 31 29 24 19 12 4 2 4 8 11 12 10 6 2 0 0 1 3 3 3 4 5 4 2 2 3 3 1 0 0 0
31 30 28 26 25 26 28 29 30 30 30 30 29 26 22 19 12 5 1 0 2 5 6 4 2 0 0 0 0 0 0 1 3 5 4 2 2 3 3 1 0 0 0
29 30 29 27 25 24 23 22 22 22 23 24 24 20 17 16 12 6 2 0 0 1 2 2 1 1 1 1 1 1 1 3 4 3 2 2 2 2 1 0 0 0 0
29 29 29 28 24 20 17 14 12 12 13 14 15 13 12 10 8 6 3 1 0 0 1 2 2 2 2 2 3 3 2 3 3 2 1 1 1 0 0 0 0 0 0
30 28 27 26 23 17 13 10 7 5 4 5 6 6 6 4 3 2 1 0 0 0 2 3 4 3 2 2 2 2 2 2 2 2 2 2 1 1 1 1 1 1 1
29 28 25 22 18 14 12 10 7 4 2 1 1 1 2 1 0 0 0 0 0 0 2 3 3 2 2 2 2 2 2 1 1 1 2 3 3 2 2 2 2 2 2
23 22 19 16 13 12 12 11 9 7 4 2 1 0 0 0 0 0 0 0 0 0 1 1 1 1 2 2 3 3 2 1 1 2 2 3 3 3 3 3 3 3 3
11 11 10 10 10 11 11 11 9 7 5 3 1 0 0 0 0 0 0 0 0 0 0 0 0 0 0 1 2 2 2 3 3 4 4 3 3 3 3 3 3 3 3
2 3 3 5 6 7 7 7 6 6 5 3 1 0 0 0 0 0 0 0 0 0 0 0 0 0 0 0 1 1 2 4 4 4 4 3 3 3 3 3 2 2 2
2 2 1 2 2 2 2 3 4 6 6 3 1 0 0 0 0 0 0 0 0 0 0 0 0 0 0 0 1 1 2 3 4 3 3 2 2 2 2 1 1 1 1
4 2 1 0 0 0 0 2 4 5 5 3 1 0 0 0 0 0 0 0 0 0 0 0 0 0 1 1 1 2 2 2 2 2 1 1 1 1 1 0 0 0 0
3 2 0 0 0 1 1 2 3 4 3 1 0 0 0 0 0 0 0 0 0 0 0 0 0 0 1 2 2 2 1 1 1 1 0 0 0 0 0 0 0 0 0
2 2 1 0 1 2 2 3 3 3 2 1 0 0 0 0 0 0 0 0 0 0 0 0 0 0 1 2 2 2 1 0 0 0 0 0 0 0 0 0 0 0 0
2 2 1 0 2 3 3 3 3 2 1 0 0 0 0 0 0 0 0 0 0 0 0 0 0 0 0 1 1 1 1 0 0 0 0 0 0 0 0 0 0 0 0
1 1 0 0 1 3 3 3 2 1 0 0 0 0 0 0 0 0 0 0 0 0 0 0 0 0 0 0 0 0 0 0 0 0 0 0 0 0 0 0 0 0 0

GEFSGL_con_probscp_192.txt.gz
Probability
26 24 22 18 13 9 6 5 6 7 6 4 4 4 5 6 9 9 7 7 6 5 4 3 3 3 3 3 2 1 0 0 0 0 0 0 0 0 0 0 0 0 0
28 24 21 19 14 10 7 5 5 4 4 3 3 4 4 6 9 11 10 9 9 7 6 4 4 3 3 3 3 2 1 1 0 0 0 0 0 0 0 0 0 0 0
31 25 19 17 14 11 8 5 5 3 2 3 3 4 4 6 9 11 11 11 11 11 10 7 5 4 4 3 3 3 3 2 1 0 0 0 0 0 0 0 0 0 0
32 27 20 17 15 12 9 7 6 5 4 3 3 3 4 7 9 10 11 10 10 11 11 9 7 6 4 3 3 4 3 3 2 1 0 0 0 0 0 0 0 0 0
30 27 23 18 15 12 10 8 7 6 5 4 3 2 4 7 9 9 9 9 8 8 9 10 9 6 4 3 3 4 4 4 3 2 1 1 0 0 0 0 0 0 0
27 25 22 19 16 13 11 9 7 7 7 6 5 4 6 8 8 6 7 8 8 7 8 9 9 6 3 2 3 3 3 4 4 3 3 2 1 0 0 0 0 0 0
24 23 21 19 17 14 11 10 10 10 10 10 9 8 9 9 6 3 3 6 8 8 8 8 8 8 5 3 3 2 3 3 3 3 3 3 2 1 1 0 0 0 0
22 22 21 20 18 15 13 13 13 14 15 15 13 13 12 9 5 1 1 4 6 7 8 8 8 8 6 3 3 3 3 3 1 1 2 2 2 2 1 0 0 0 0
21 20 19 19 19 17 15 16 17 18 19 18 16 14 12 10 5 1 1 2 4 5 6 6 6 6 4 2 1 3 4 3 2 1 1 1 1 1 1 0 0 0 0
18 18 17 17 18 17 16 16 18 18 18 17 15 12 11 9 5 1 1 2 2 3 3 2 2 2 1 0 0 1 2 3 3 3 2 1 0 0 0 0 0 0 0
16 15 15 15 15 15 15 15 16 16 15 13 11 9 9 8 6 2 0 1 3 3 2 1 1 0 0 0 0 0 1 1 2 2 2 1 1 0 0 0 0 0 0
14 13 12 12 13 14 14 14 13 13 11 9 8 7 7 7 6 3 1 1 2 3 3 2 1 0 0 0 0 0 0 0 0 1 1 1 1 0 0 0 0 0 0
11 10 9 9 10 11 12 11 10 10 9 7 6 6 6 6 6 4 1 0 1 1 2 2 1 0 0 0 0 0 0 0 0 0 0 0 0 0 0 0 0 0 0
8 7 6 5 5 6 7 7 7 7 7 7 6 6 6 6 6 5 3 1 0 0 1 1 0 0 0 0 0 0 0 0 0 0 0 0 0 0 0 0 0 0 0
6 5 3 3 3 3 4 4 4 5 5 5 5 6 6 6 6 5 4 2 0 0 0 0 0 0 0 0 0 0 0 0 0 0 0 0 0 0 0 0 0 0 0
4 3 2 2 3 4 3 3 3 3 3 2 3 3 3 4 3 3 2 1 0 0 0 0 0 0 0 0 0 0 0 0 0 0 0 0 0 0 0 0 0 0 0
3 2 1 1 2 3 3 2 2 2 1 1 1 1 1 2 1 1 0 0 0 0 0 0 0 0 0 0 0 0 0 0 0 0 0 0 0 0 0 0 0 0 0
2 1 0 0 1 2 3 3 4 4 3 2 1 0 0 0 0 0 0 0 0 0 0 0 0 0 0 0 0 0 0 0 0 0 0 0 0 0 0 0 0 0 0
2 1 0 0 0 1 2 4 5 6 6 4 3 1 0 0 0 0 0 0 0 0 0 0 0 0 0 0 0 0 0 0 0 0 0 0 0 0 0 0 0 0 0
2 1 0 0 0 0 1 3 4 5 6 5 4 2 1 0 0 0 0 0 0 0 0 0 0 0 0 0 0 0 0 0 0 0 0 0 0 0 0 0 0 0 0
1 0 0 0 0 0 0 1 1 3 4 4 3 2 1 0 0 0 0 0 0 0 0 0 0 0 0 0 0 0 0 0 0 0 0 0 0 0 0 0 0 0 0
0 0 0 0 0 0 0 0 0 1 1 1 1 1 0 0 0 0 0 0 0 0 0 0 0 0 0 0 0 0 0 0 0 0 0 0 0 0 0 0 0 0 0
0 0 0 0 0 0 0 0 0 0 0 0 0 0 0 0 0 0 0 0 0 0 0 0 0 0 0 0 0 0 0 0 0 0 0 0 0 0 0 0 0 0 0
0 0 0 0 0 0 0 0 0 0 0 0 0 0 0 0 0 0 0 0 0 0 0 0 0 0 0 0 0 0 0 0 0 0 0 0 0 0 0 0 0 0 0
0 0 0 0 0 0 0 0 0 0 0 0 0 0 0 0 0 0 0 0 0 0 0 0 0 0 0 0 0 0 0 0 0 0 0 0 0 0 0 0 0 0 0
0 0 0 0 0 0 0 0 0 0 0 0 0 0 0 0 0 0 0 0 0 0 0 0 0 0 0 0 0 0 0 0 0 0 0 0 0 0 0 0 0 0 0